Tracking 18823 objects as of 22-October-2017
HD Live streaming from Space Station
objects crossing your sky now

USA 58

Track USA 58 now!
10-day predictions
USA 58 is classified as:


NORAD ID: 20562
Int'l Code: 1990-031C
Perigee: 700.7 km
Apogee: 703.5 km
Inclination: 89.8 °
Period: 98.7 minutes
Semi major axis: 7073 km
RCS: Unknown
Launch date: April 11, 1990
Source: United States (US)
Launch site: AIR FORCE WESTERN TEST RANGE (AFWTR)
aabbcc
Your satellite tracking list
Your tracking list is empty





NASA's NSSDC Master Catalog

Two Line Element Set (TLE):
1 20562U 90031C   14217.03818759 0.00000000  00000-0  00000-0 0    07
2 20562  89.7939 335.9734 0001983 235.6846 124.3153 14.59434657    08
Source of the keplerian elements: McCants